NameVerkehrslandeplatz Ganderkesee
ICAO-CODEEDWQ
Koordinaten53.02.15 N / 08.30.22 E
Richtung26 (262°) / 08 (082°)
Höhe über Grund96 ft
Abmessung835 m x 22 m
BelagLandebahn: ASPH
Rollwege: ASPH
FrequenzenGanderkesee Info / 118.630 MHz (spätestens 5 min. vor Erreichen des Platzes)
Bremen Information: 119.825 MHz
Bremen Approach: 124.800 MHz
Im Flugplatzverkehr ist ständige Hörbereitschaft aufrechtzuerhalten.
Auf Segelflüge / Ultralights / Fallschirmspringen achten – insbesondere am Samstag / Sonntag / Feiertag.
TowerTel +49 4222 8054610
METAR
(EDDW)
EDDW 241450Z AUTO 20005KT 9999 BKN011 BKN018 15/13 Q1011 TEMPO BKN008 (ohne Gewähr)
TAF
(EDDW)
TAF EDDW 241100Z 2412/2512 VRB03KT 7000 BKN009 TEMPO 2412/2504 3000 -RADZ PROB30 TEMPO 2412/2416 SCT009 BKN020 PROB40 TEMPO 2416/2504 1200 RADZ BR OVC002 BECMG 2503/2505 33005KT BECMG 2508/2510 BKN025 (ohne Gewähr)
NOTAMs
Betriebszeiten09:00 – 19:51 Uhr (automatisch berechnete Zeit – ohne Gewähr)
Sommer:
UTC+2 09:00 Uhr bis Sonnenuntergang + 30 Min. (max. 20:00 Uhr)
Winter:
UTC+1 09:00 Uhr bis Sonnenuntergang + 30 Min. (max. 20:00 Uhr)
Andere Zeiten PPR.
13:00 bis 15:00 Uhr Ab- und Anflüge nur für / von Überlandflügen.
Flugbetriebsstoffesiehe Preise / Gebühren
Platzrundesiehe Sichtflug
Hangarssiehe Hangars
BetriebsartenSichtflug (VFR)
Sichtflug bei Nacht (NVFR)
GAFOR07
LuftfahrzeugartenFlugzeuge bis 5.700 kg MPW
Motorsegler
Segelflug (Schleppstart)
Ultraleicht-Flugzeuge
Freiballone PPR
Flugzeuge ab 5.700 kg PPR
Fallschirmspringer PPR